Погода в Оушен-Сити

США     38°19′53″N   75°06′25″W
темп.,
°C
ветер,
м/с
пор.,
м/с
влажн.,
%
обл.,
%
осадки,
мм/ч
давл.,
гПа
погр.,
м
26 февраля, пт
пт2601:00+6с23670 0.0 102624
04:00+6сз335955 0.0 102651
07:00+5ссз565961 0.0 1029160
10:00+5ссв797067 0.0 1032346
13:00+5всв687383 0.0 1030313
16:00+6в5675100 0.0 1030127
19:00+7в6875100 0.0 1030144
22:00+7вюв5679100 0.4 103190
27 февраля, сб
сб2701:00+7вюв81290100 2.7 1028229
04:00+8юв81395100 1.5 1024175
07:00+8юв5697100 6.6 102237
10:00+8ююз6799100 5.4 102082
13:00+10юз89100100 5.6 101976
16:00+10юз7895100 0.0 101949
19:00+10з5693100 0.1 102123
22:00+9з3495100 0.1 102323
28 февраля, вс
вс2801:00+8сз2395100 0.1 102322
04:00+9вюв3491100 0.0 102322
07:00+9вюв6792100 0.0 102235
10:00+9юв91394100 0.3 1021123
13:00+9ю811100100 3.1 101697
16:00+10ююз8999100 0.3 101267
19:00+12з6797100 0.8 101325
22:00+11з4592100 0.3 101223
1 марта, пн
пн101:00+10зюз3494100 0.3 101023
04:00+9ссв45100100 4.9 100922
07:00+9ссз44100100 10.7 101024
10:00+6ссз91395100 6.3 1012351
13:00+6сз6988100 9.9 1012427
16:00+6зсз5986100 0.2 1012366
19:00+7з5780100 0.2 1013124
22:00+7з81473100 0.1 1014371
2 марта, вт
вт201:00+3сз15186067 0.1 10181877
04:00−3сз13195626 0.0 10231508
07:00−4сз12165513 0.0 10271450
10:00−3ссз1113490 0.0 10301400
13:000сз810390 0.0 10311411
16:00+1сз88370 0.0 10301251
19:00+1сз68370 0.0 1031821
22:00+2зюз44370 0.0 1031409